[[[{"header":{"parameterUnit":"kt","parameterCategory":2,"dx":1,"dy":1,"la1":30.253999710083008,"la2":30.299108505249023,"lo1":-89.0895004272461,"lo2":-89.04439544677734,"nx":28,"ny":28,"refTime":"2022-10-16T21:00:00:Z","depth":0,"parameterNumber":1,"parameterNumberName":"U-component_of_WINDS"},"data":[-2.2141,-2.2253,-2.2249,-2.2373,-2.2391,-2.2475,-2.2504,-2.254,-2.2568,-2.2667,-2.2723,-2.273,-2.2755,-2.282,-2.288,-2.2881,-2.2908,-2.2948,-2.2944,-2.2764,-2.274,-2.2716,-2.269,-2.2954,-2.2954,-2.3131,-2.3132,-2.3134,-2.2005,-2.2024,-2.2089,-2.215,-2.2205,-2.2163,-2.2207,-2.2257,-2.2333,-2.2368,-2.2424,-2.251,-2.2578,-2.2591,-2.2655,-2.2705,-2.269,-2.2723,-2.2721,-2.2726,-2.2533,-2.2506,-2.2735,-2.2735,-2.2734,-2.2734,-2.2734,-2.2734,-2.1756,-2.1824,-2.1859,-2.193,-2.1959,-2.2,-2.2063,-2.2071,-2.2135,-2.2203,-2.2186,-2.2272,-2.2307,-2.2384,-2.2408,-2.2475,-2.2438,-2.2473,-2.2483,-2.2493,-2.2504,-2.2249,-2.2485,-2.2485,-2.2484,-2.2483,-2.2483,0,-2.1574,-2.1567,-2.163,-2.1692,-2.1744,-2.1792,-2.1835,-2.1874,-2.1857,-2.1911,-2.1987,-2.2031,-2.2116,-2.2188,-2.2248,-2.2267,-2.2231,-2.2226,-2.2251,-2.2263,-2.2263,-2.2265,-2.1952,-2.2221,-2.2218,-2.2217,-2.2216,-2.2215,-2.1325,-2.1404,-2.144,-2.1484,-2.1508,-2.1581,-2.1623,-2.1603,-2.1649,-2.1699,-2.1759,-2.1831,-2.1888,-2.2011,-2.202,-2.2084,-2.2068,-2.217,-2.2078,-2.2083,-2.2071,-2.2068,-2.2075,-2.219,-2.2194,-2.2196,-2.2198,0,-2.1184,-2.118,-2.1302,-2.133,-2.134,-2.1423,-2.1447,-2.1514,-2.1515,-2.1606,-2.1626,-2.1629,-2.1705,-2.1698,-2.1783,-2.1777,-2.1913,-2.1894,-2.19,-2.1897,-2.1989,-2.1981,-2.2288,-2.2327,-2.2052,-2.2054,-2.2056,0,-2.0971,-2.1076,-2.1063,-2.1135,-2.1249,-2.1228,-2.1342,-2.1355,-2.1386,-2.1458,-2.1415,-2.1484,-2.1464,-2.1531,-2.1523,-2.1632,-2.1648,-2.165,-2.1648,-2.1656,-2.1656,-2.1683,-2.1672,-2.1636,-2.1635,-2.1633,-2.1632,0,-2.0755,-2.0871,-2.0986,-2.1012,-2.1055,-2.1109,-2.1129,-2.1165,-2.1207,-2.1261,-2.1288,-2.1352,-2.1388,-2.1437,-2.1427,-2.1364,-2.156,-2.1472,-2.1563,-2.1564,-2.1611,-2.1609,-2.1878,-2.163,-2.163,-2.1629,-2.1629,0,-2.0584,-2.0639,-2.0807,-2.0841,-2.0873,-2.0949,-2.1011,-2.1074,-2.1115,-2.1115,-2.1157,-2.113,-2.1225,-2.1137,-2.1268,-2.1189,-2.1226,-2.1237,-2.1244,-2.1255,-2.1159,-2.1315,-2.157,-2.1598,-2.126,-2.1257,-2.1254,0,-2.0337,-2.0506,-2.049,-2.065,-2.0727,-2.0675,-2.0758,-2.0796,-2.0804,-2.0869,-2.0876,-2.0953,-2.0886,-2.091,-2.0975,-2.0986,-2.1088,-2.0972,-2.1068,-2.1072,-2.1061,-2.1295,-2.1337,-2.1514,-2.1215,-2.1219,-2.1222,0,-2.0147,-2.0199,-2.023,-2.0259,-2.0307,-2.0372,-2.0468,-2.0539,-2.0584,-2.0632,-2.0712,-2.0818,-2.0773,-2.0813,-2.0798,-2.0866,-2.1018,-2.0809,-2.081,-2.0848,-2.1194,-2.1233,-2.1263,-2.0993,-2.0998,-2.1001,-2.119,0,-1.9891,-1.9976,-2.0056,-2.0124,-2.0173,-2.0273,-2.0269,-2.0321,-2.0301,-2.0308,-2.0425,-2.0457,-2.0531,-2.0563,-2.0546,-2.0704,-2.0678,-2.0629,-2.0547,-2.07,-2.0763,-2.0788,-2.0454,-2.0452,-2.045,-2.0448,0,0,-1.9658,-1.978,-1.9761,-1.9855,-1.9896,-1.9842,-1.995,-1.9983,-2.0053,-2.0082,-2.0035,-2.0192,-2.0221,-2.0365,-2.0412,-2.0442,-2.047,-2.0418,-2.0627,-2.0647,-2.0666,-2.0732,-2.0759,-2.0444,-2.0443,-2.0443,-2.0442,0,-1.9565,-1.9595,-1.9702,-1.9736,-1.9785,-1.9787,-1.9813,-1.9853,-1.9863,-1.9979,-1.9935,-2.0005,-2.0132,-2.0169,-2.0204,-2.0399,-2.0363,-2.0421,-2.0528,-2.0606,-2.0629,-2.0649,-2.0719,-2.0745,-2.0437,-2.0437,-2.0438,0,-1.9378,-1.9408,-1.9459,-1.955,-1.9583,-1.9665,-1.9576,-1.9667,-1.9727,-1.9667,-1.9784,-1.9802,-1.985,-1.9987,-2.0049,-2.0009,-2.0266,-2.0185,-2.0198,-2.0206,-2.0281,-2.0309,-2.0333,-2.0013,-2.0011,-2.001,0,0,-1.9299,-1.9378,-1.9405,-1.953,-1.9554,-1.9559,-1.9603,-1.9589,-1.9634,-1.9653,-1.9676,-1.9722,-1.9795,-1.9844,-1.9913,-2.0063,-2.0073,-2.0133,-2.0153,-2.0169,-2.0186,-2.0266,-2.0293,-2.0005,-2.0004,-2.0004,0,0,-1.9261,-1.9298,-1.9271,-1.9416,-1.946,-1.9496,-1.9573,-1.9541,-1.9603,-1.9592,-1.9574,-1.9585,-1.9713,-1.9734,-1.966,-1.9884,-1.9802,-1.982,-1.9867,-1.9892,-1.9912,-1.9906,-1.9576,0,0,0,0,0,-1.9166,-1.9293,-1.9268,-1.9292,-1.9409,-1.951,-1.9524,-1.9513,-1.9454,-1.9515,-1.9529,-1.9488,-1.9689,-1.9624,-1.9648,-1.9732,-1.9933,-1.9946,-1.9958,-2.0054,-2.008,-2.0103,0,0,0,0,0,0,-1.9175,-1.9204,-1.9265,-1.9307,-1.9333,-1.9505,-1.9404,-1.9404,-1.9448,-1.9438,-1.9486,-1.9489,-1.9481,-1.961,-1.9632,-1.9712,-1.9569,-1.9938,-1.9949,-1.9959,-2.0063,-2.0084,-2.0103,0,0,0,0,0,-1.9182,-1.9206,-1.9396,-1.9305,-1.9328,-1.9342,-1.9399,-1.9398,-1.9432,-1.9455,-1.9457,-1.9419,-1.9484,-1.9502,-1.9623,-1.9703,-1.9553,-1.9562,-1.9945,-1.9954,-1.9961,-2.0073,0,0,0,0,0,0,-1.9188,-1.9206,-1.94,-1.9407,-1.9257,-1.9332,-1.9343,-1.9394,-1.9446,-1.9449,-1.9387,-1.9379,-1.9488,-1.95,-1.9514,-1.97,-1.9541,-1.9549,-1.9555,-1.9952,-1.9958,-1.9964,0,0,0,0,0,0,-1.9193,-1.9212,-1.9403,-1.9343,-1.9343,-1.9323,-1.9333,-1.9435,-1.9448,-1.9375,-1.9369,-1.9383,-1.9467,-1.95,-1.9511,-1.9671,-1.9532,-1.9539,-1.9545,-1.9549,-1.9957,-1.9962,0,0,0,0,0,0,-1.9201,-1.9217,-1.9341,-1.9341,-1.934,-1.9411,-1.9413,-1.9533,-1.9395,-1.9373,-1.9383,-1.9377,-1.9468,-1.9478,-1.9509,-1.9665,-1.9669,-1.9532,-1.9537,-1.9541,-1.9544,0,0,0,0,0,0,0,-1.9207,-1.9103,-1.9362,-1.9339,-1.9338,-1.9466,-1.9468,-1.9469,-1.9394,-1.9389,-1.9384,-1.9379,-1.9486,-1.9495,-1.9504,-1.966,0,0,-1.9531,-1.9535,0,0,0,0,0,0,0,0,-1.9096,-1.9101,-1.9362,-1.9364,-1.9365,-1.9466,-1.9468,-1.9469,-1.9393,-1.9389,-1.9385,-1.9381,-1.9488,-1.9495,-1.9503,0,0,0,0,0,0,0,0,0,0,0,0,0,0,0,-1.9362,-1.9364,0,-1.9466,-1.9468,-1.9469,-1.9393,-1.9389,-1.9386,-1.9383,-1.949,-1.9496,-1.9502,0,0,0,0,0,0,0,0,0,0,0,0,0,0,0,0,0,0,0,0,0,0,0,0,0,0,0,0,0,0,0,0,0,0,0,0,0,0,0,0,0,0,0,0,0,0,0,0,0,0,0,0,0,0,0,0,0,0,0,0,0,0,0,0,0,0,0,0,0]}],[{"header":{"parameterUnit":"kt","parameterCategory":2,"dx":1,"dy":1,"la1":30.253999710083008,"la2":30.299108505249023,"lo1":-89.0895004272461,"lo2":-89.04439544677734,"nx":28,"ny":28,"refTime":"2022-10-16T21:00:00:Z","depth":0,"parameterNumber":2,"parameterNumberName":"V-component_of_WINDS"},"data":[-16.761,-16.7917,-16.7934,-16.829,-16.8364,-16.8608,-16.87,-16.8819,-16.8916,-16.9204,-16.9371,-16.9414,-16.9512,-16.971,-16.9888,-16.9901,-16.9975,-17.0073,-17.0071,-16.9625,-16.9563,-16.9505,-16.9435,-17.0089,-17.009,-17.0531,-17.0535,-17.0538,-16.7281,-16.7359,-16.7553,-16.7751,-16.7916,-16.7832,-16.798,-16.8121,-16.834,-16.8462,-16.8628,-16.888,-16.9079,-16.9145,-16.9336,-16.9474,-16.9443,-16.9525,-16.9514,-16.953,-16.9054,-16.8979,-16.9548,-16.9548,-16.9547,-16.9547,-16.9547,-16.9547,-16.6685,-16.6869,-16.6999,-16.7208,-16.7312,-16.7443,-16.7618,-16.7669,-16.7855,-16.8062,-16.804,-16.8285,-16.8406,-16.8642,-16.8722,-16.891,-16.882,-16.8912,-16.8935,-16.8958,-16.8983,-16.8343,-16.8943,-16.8941,-16.894,-16.8939,-16.8937,0,-16.6253,-16.6254,-16.6441,-16.6633,-16.6786,-16.6935,-16.7073,-16.7181,-16.7182,-16.7335,-16.7556,-16.7685,-16.7937,-16.8143,-16.8324,-16.8388,-16.831,-16.8303,-16.8367,-16.8381,-16.8371,-16.8379,-16.76,-16.8285,-16.8279,-16.8275,-16.8272,-16.827,-16.5651,-16.5865,-16.6007,-16.6135,-16.6215,-16.6422,-16.6547,-16.6532,-16.6665,-16.6829,-16.6989,-16.7196,-16.7361,-16.7708,-16.7757,-16.7943,-16.7906,-16.8166,-16.7933,-16.7939,-16.7908,-16.7895,-16.7915,-16.8211,-16.8219,-16.8225,-16.823,0,-16.5311,-16.5335,-16.5669,-16.5787,-16.5823,-16.6045,-16.6143,-16.6323,-16.635,-16.66,-16.6657,-16.6698,-16.6913,-16.692,-16.7165,-16.7161,-16.7519,-16.7479,-16.7477,-16.7469,-16.7702,-16.7679,-16.8459,-16.8559,-16.7881,-16.7888,-16.7893,0,-16.4806,-16.5085,-16.5104,-16.5297,-16.5605,-16.5583,-16.5887,-16.594,-16.6045,-16.6242,-16.6157,-16.6343,-16.6322,-16.6508,-16.6503,-16.6796,-16.6842,-16.6856,-16.6851,-16.6864,-16.6862,-16.693,-16.6898,-16.6833,-16.6829,-16.6826,-16.6822,0,-16.427,-16.4607,-16.492,-16.4999,-16.5152,-16.5298,-16.5367,-16.5483,-16.5605,-16.5764,-16.5842,-16.6027,-16.6128,-16.627,-16.6262,-16.6104,-16.6622,-16.6402,-16.6635,-16.6636,-16.6748,-16.6741,-16.7431,-16.6817,-16.6816,-16.6815,-16.6814,0,-16.3864,-16.4032,-16.4482,-16.4606,-16.4694,-16.4899,-16.5082,-16.5259,-16.5388,-16.5399,-16.5523,-16.5465,-16.5724,-16.5505,-16.5859,-16.5655,-16.5758,-16.5795,-16.5812,-16.5834,-16.5588,-16.5975,-16.6633,-16.6701,-16.5856,-16.5848,-16.5841,0,-16.3244,-16.3704,-16.3689,-16.4116,-16.433,-16.422,-16.4446,-16.4564,-16.4598,-16.478,-16.4814,-16.5021,-16.486,-16.4925,-16.51,-16.5143,-16.5408,-16.5107,-16.5363,-16.5373,-16.5333,-16.5938,-16.6034,-16.6489,-16.5739,-16.5749,-16.5757,0,-16.2765,-16.295,-16.3027,-16.3117,-16.3272,-16.3449,-16.3709,-16.3911,-16.4034,-16.4174,-16.4389,-16.468,-16.4569,-16.4678,-16.465,-16.4832,-16.5227,-16.4687,-16.469,-16.4783,-16.5688,-16.5778,-16.5855,-16.5167,-16.518,-16.519,-16.5676,0,-16.2145,-16.2379,-16.2589,-16.2791,-16.2929,-16.3197,-16.3208,-16.3351,-16.3311,-16.334,-16.3656,-16.3752,-16.3954,-16.4042,-16.4004,-16.4419,-16.4349,-16.4229,-16.4014,-16.4413,-16.4573,-16.4638,-16.3775,-16.3769,-16.3764,-16.3759,0,0,-16.1544,-16.1879,-16.1853,-16.2107,-16.2222,-16.2104,-16.2388,-16.2485,-16.2685,-16.2765,-16.2646,-16.3071,-16.3153,-16.3535,-16.366,-16.3742,-16.3815,-16.3676,-16.4223,-16.4275,-16.4323,-16.4494,-16.4563,-16.375,-16.3748,-16.3746,-16.3744,0,-16.132,-16.1415,-16.1699,-16.18,-16.1948,-16.1966,-16.2034,-16.2158,-16.219,-16.2501,-16.2395,-16.2585,-16.2924,-16.3025,-16.3121,-16.3631,-16.3538,-16.3692,-16.3963,-16.417,-16.4229,-16.4281,-16.4461,-16.4526,-16.3732,-16.3732,-16.3733,0,-16.0849,-16.0944,-16.1082,-16.1341,-16.1436,-16.1657,-16.1437,-16.168,-16.1843,-16.1696,-16.2006,-16.206,-16.2195,-16.2556,-16.2717,-16.2613,-16.3285,-16.3074,-16.3108,-16.3125,-16.3325,-16.3396,-16.3459,-16.2629,-16.2626,-16.2622,0,0,-16.0654,-16.0871,-16.0965,-16.1293,-16.1361,-16.1391,-16.1509,-16.1482,-16.1609,-16.1661,-16.1728,-16.1852,-16.2048,-16.2178,-16.2363,-16.2758,-16.2782,-16.2938,-16.2991,-16.3033,-16.3073,-16.3285,-16.3355,-16.2608,-16.2607,-16.2607,0,0,-16.0559,-16.0682,-16.0621,-16.1004,-16.1131,-16.1242,-16.1441,-16.1367,-16.1535,-16.1504,-16.1465,-16.1497,-16.1834,-16.189,-16.1695,-16.2285,-16.2074,-16.212,-16.2237,-16.2302,-16.2354,-16.2332,-16.1478,0,0,0,0,0,-16.0335,-16.0667,-16.061,-16.0676,-16.1,-16.1275,-16.1315,-16.1293,-16.1144,-16.1302,-16.1346,-16.1239,-16.1776,-16.1603,-16.1666,-16.1884,-16.242,-16.2453,-16.2484,-16.2727,-16.2796,-16.2854,0,0,0,0,0,0,-16.0361,-16.0442,-16.0601,-16.0727,-16.08,-16.1262,-16.1005,-16.1008,-16.1127,-16.1102,-16.1235,-16.1244,-16.1227,-16.1568,-16.1626,-16.1833,-16.1459,-16.2433,-16.2461,-16.2487,-16.2751,-16.2807,-16.2855,0,0,0,0,0,-16.0381,-16.0446,-16.0973,-16.0722,-16.0785,-16.0836,-16.0992,-16.0993,-16.1084,-16.1153,-16.1158,-16.1056,-16.1234,-16.128,-16.1602,-16.1808,-16.1419,-16.144,-16.2451,-16.2474,-16.2493,-16.2778,0,0,0,0,0,0,-16.0396,-16.0447,-16.0985,-16.1003,-16.0596,-16.0809,-16.0842,-16.098,-16.1125,-16.1135,-16.0971,-16.095,-16.1243,-16.1277,-16.1314,-16.18,-16.1386,-16.1408,-16.1422,-16.2468,-16.2486,-16.2501,0,0,0,0,0,0,-16.0412,-16.0464,-16.0994,-16.0836,-16.0836,-16.0785,-16.0814,-16.1083,-16.1128,-16.0934,-16.0922,-16.096,-16.1185,-16.1277,-16.1304,-16.1725,-16.1361,-16.1382,-16.1396,-16.1406,-16.2482,-16.2496,0,0,0,0,0,0,-16.0433,-16.0478,-16.0831,-16.0831,-16.083,-16.1032,-16.1021,-16.1353,-16.0997,-16.093,-16.0964,-16.0949,-16.1188,-16.1215,-16.1299,-16.1709,-16.1721,-16.1361,-16.1376,-16.1386,-16.1393,0,0,0,0,0,0,0,-16.045,-16.016,-16.0878,-16.0827,-16.0825,-16.1171,-16.1176,-16.1181,-16.0994,-16.0981,-16.0968,-16.0956,-16.1241,-16.1264,-16.1287,-16.1695,0,0,-16.1359,-16.137,0,0,0,0,0,0,0,0,-16.0141,-16.0155,-16.0878,-16.0882,-16.0886,-16.1172,-16.1176,-16.118,-16.0992,-16.0981,-16.0971,-16.0961,-16.1247,-16.1265,-16.1284,0,0,0,0,0,0,0,0,0,0,0,0,0,0,0,-16.0879,-16.0882,0,-16.1173,-16.1176,-16.1179,-16.099,-16.0982,-16.0973,-16.0965,-16.1252,-16.1267,-16.1283,0,0,0,0,0,0,0,0,0,0,0,0,0,0,0,0,0,0,0,0,0,0,0,0,0,0,0,0,0,0,0,0,0,0,0,0,0,0,0,0,0,0,0,0,0,0,0,0,0,0,0,0,0,0,0,0,0,0,0,0,0,0,0,0,0,0,0,0,0]}]]]